FW7194 Weather Reports


Display with metric or nautical units.
time (UTC)temp
F
wind
direction
speed
MPH
gust
MPH
rain 1hr
in
rain 24hr
in
rain mn
in
humidity
%
barometer
mb
20260903221110 85 201 1.0 6.0 0.00 0.00 0.00 84 1016.4
20260903220609 85 236 1.0 5.0 0.00 0.00 0.00 84 1016.4
20260903220109 85 149 4.0 5.0 0.00 0.00 0.00 84 1016.6
20260903215608 85 119 5.0 8.0 0.00 0.00 0.00 83 1016.4
20260903215102 85 212 0.0 9.0 0.00 0.00 0.00 83 1016.1
20260903214601 85 120 3.0 3.0 0.00 0.00 0.00 83 1016.5
20260903214057 85 193 1.0 7.0 0.00 0.00 0.00 83 1016.2
20260903213552 85 172 4.0 9.0 0.00 0.00 0.00 83 1016.4
20260903213048 85 132 4.0 9.0 0.00 0.00 0.00 83 1016.5
20260903212543 85 190 1.0 10.0 0.00 0.00 0.00 83 1016.5
20260903212039 85 90 5.0 7.0 0.00 0.00 0.00 83 1016.6
20260903211534 85 46 2.0 5.0 0.00 0.00 0.00 83 1016.7
20260903211031 86 184 1.0 6.0 0.00 0.00 0.00 83 1016.5
20260903210530 86 144 4.0 8.0 0.00 0.00 0.00 83 1016.8
20260903210026 86 147 4.0 10.0 0.00 0.00 0.00 83 1016.7
20260903205520 86 137 7.0 8.0 0.00 0.00 0.00 83 1016.7
20260903205014 86 135 6.0 11.0 0.00 0.00 0.00 82 1016.6
20260903204504 86 117 4.0 15.0 0.00 0.00 0.00 82 1016.8
20260903203959 86 115 3.0 8.0 0.00 0.00 0.00 82 1016.9
20260903203455 86 88 5.0 14.0 0.00 0.00 0.00 82 1016.9
20260903202954 86 154 2.0 7.0 0.00 0.00 0.00 82 1016.9
20260903202451 86 167 6.0 10.0 0.00 0.00 0.00 82 1016.9
20260903201950 86 94 0.0 9.0 0.00 0.00 0.00 82 1016.6
20260903201440 86 98 7.0 9.0 0.00 0.00 0.00 82 1017.0
20260903200939 86 209 4.0 13.0 0.00 0.00 0.00 82 1016.9
20260903200434 86 101 4.0 7.0 0.00 0.00 0.00 82 1016.9
20260903195929 86 350 7.0 9.0 0.00 0.00 0.00 81 1017.1
20260903195426 86 159 3.0 7.0 0.00 0.00 0.00 82 1016.8
20260903194920 86 136 5.0 14.0 0.00 0.00 0.00 81 1017.1
20260903194416 87 163 2.0 11.0 0.00 0.00 0.00 81 1017.2
20260903193911 87 118 3.0 10.0 0.00 0.00 0.00 80 1017.1
20260903193408 87 271 1.0 7.0 0.00 0.00 0.00 80 1017.2
20260903192902 87 176 3.0 6.0 0.00 0.00 0.00 79 1017.3
20260903192358 87 33 4.0 8.0 0.00 0.00 0.00 79 1017.2
20260903191854 87 268 2.0 6.0 0.00 0.00 0.00 80 1017.3
20260903191350 87 129 4.0 10.0 0.00 0.00 0.00 80 1017.4
20260903190849 87 82 3.0 10.0 0.00 0.00 0.00 79 1017.2
20260903190344 87 211 5.0 9.0 0.00 0.00 0.00 79 1017.3
20260903185843 87 31 2.0 10.0 0.00 0.00 0.00 79 1017.3
20260903185338 87 125 2.0 6.0 0.00 0.00 0.00 78 1017.2
20260903184834 88 72 4.0 7.0 0.00 0.00 0.00 77 1017.5
20260903184331 88 144 2.0 6.0 0.00 0.00 0.00 77 1017.5
20260903183826 88 137 6.0 10.0 0.00 0.00 0.00 77 1017.5
20260903183320 88 108 6.0 8.0 0.00 0.00 0.00 77 1017.6
20260903182819 88 148 6.0 10.0 0.00 0.00 0.00 77 1017.4
20260903182314 88 167 1.0 5.0 0.00 0.00 0.00 76 1017.6
20260903181814 88 128 3.0 7.0 0.00 0.00 0.00 76 1017.6
20260903181308 88 182 6.0 9.0 0.00 0.00 0.00 76 1017.9
20260903180803 88 178 2.0 11.0 0.00 0.00 0.00 76 1017.5
20260903180303 88 181 2.0 7.0 0.00 0.00 0.00 76 1017.7
20260903175802 88 181 5.0 10.0 0.00 0.00 0.00 75 1017.7
20260903175301 88 115 7.0 10.0 0.00 0.00 0.00 75 1017.7
20260903174800 89 97 10.0 11.0 0.00 0.00 0.00 75 1017.8
20260903174256 89 131 5.0 8.0 0.00 0.00 0.00 75 1017.8
20260903173751 89 151 6.0 9.0 0.00 0.00 0.00 75 1017.8
20260903173247 89 86 7.0 9.0 0.00 0.00 0.00 75 1017.7
20260903172742 89 116 4.0 6.0 0.00 0.00 0.00 75 1017.6
20260903172237 89 114 9.0 13.0 0.00 0.00 0.00 76 1017.6
20260903171732 89 192 4.0 8.0 0.00 0.00 0.00 76 1017.8
20260903171227 89 44 1.0 3.0 0.00 0.00 0.00 76 1017.7
20260903170725 89 115 7.0 9.0 0.00 0.00 0.00 75 1017.9
20260903170221 89 187 2.0 7.0 0.00 0.00 0.00 76 1017.9
20260903165720 89 185 1.0 7.0 0.00 0.00 0.00 75 1018.2
20260903165215 89 150 2.0 5.0 0.00 0.00 0.00 75 1018.2
20260903164709 89 60 2.0 7.0 0.00 0.00 0.00 74 1018.3
20260903164206 89 90 3.0 9.0 0.00 0.00 0.00 75 1018.5
20260903163705 89 164 1.0 7.0 0.00 0.00 0.00 76 1018.3
20260903163202 88 143 3.0 7.0 0.00 0.00 0.00 76 1018.3
20260903162657 88 7 1.0 7.0 0.00 0.00 0.00 76 1018.5
20260903162153 89 110 3.0 8.0 0.00 0.00 0.00 78 1018.3
20260903161648 88 41 3.0 8.0 0.00 0.00 0.00 77 1018.3
20260903161137 89 146 5.0 8.0 0.00 0.00 0.00 77 1018.2
20260903160633 89 88 2.0 8.0 0.00 0.00 0.00 79 1018.3
20260903160127 89 173 2.0 5.0 0.00 0.00 0.00 79 1018.5
20260903155626 88 173 3.0 5.0 0.00 0.00 0.00 79 1018.3
20260903155121 87 142 1.0 5.0 0.00 0.00 0.00 79 1018.6
20260903154617 87 141 2.0 7.0 0.00 0.00 0.00 80 1018.6
20260903154113 86 54 4.0 5.0 0.00 0.00 0.00 79 1018.4
20260903153608 87 161 4.0 9.0 0.00 0.00 0.00 79 1018.4
20260903153104 87 172 1.0 3.0 0.00 0.00 0.00 79 1018.6
20260903152600 88 148 2.0 5.0 0.00 0.00 0.00 79 1018.5
20260903152056 88 105 1.0 5.0 0.00 0.00 0.00 80 1018.4
20260903151555 87 132 2.0 6.0 0.00 0.00 0.00 80 1018.3
20260903151051 87 120 2.0 3.0 0.00 0.00 0.00 79 1018.3
20260903150550 88 146 1.0 3.0 0.00 0.00 0.00 79 1018.5
20260903150046 88 106 3.0 8.0 0.00 0.00 0.00 79 1018.5
20260903145545 87 135 1.0 8.0 0.00 0.00 0.00 80 1018.3
20260903145041 87 165 2.0 7.0 0.00 0.00 0.00 80 1018.1
20260903144539 87 164 1.0 8.0 0.00 0.00 0.00 81 1018.3
20260903144036 87 132 5.0 6.0 0.00 0.00 0.00 82 1018.2
20260903143532 86 155 4.0 7.0 0.00 0.00 0.00 83 1018.2
20260903143027 86 109 2.0 5.0 0.00 0.00 0.00 85 1018.2
20260903142522 85 91 1.0 3.0 0.00 0.00 0.00 85 1018.3
20260903142019 85 131 3.0 5.0 0.00 0.00 0.00 85 1018.3
20260903141515 85 152 3.0 5.0 0.00 0.00 0.00 86 1018.1
20260903141010 85 33 6.0 8.0 0.00 0.00 0.00 86 1018.2
20260903140505 85 23 7.0 8.0 0.00 0.00 0.00 86 1018.0
20260903140000 85 17 5.0 7.0 0.00 0.00 0.00 87 1017.9
20260903135456 86 139 1.0 2.0 0.00 0.00 0.00 88 1018.0
20260903134950 85 162 1.0 3.0 0.00 0.00 0.00 89 1018.1
20260903134449 85 120 1.0 3.0 0.00 0.00 0.00 90 1018.1
20260903133946 84 157 1.0 3.0 0.00 0.00 0.00 89 1018.3
20260903133443 84 144 0.0 3.0 0.00 0.00 0.00 91 1018.1
20260903132938 83 128 1.0 2.0 0.00 0.00 0.00 91 1018.0
20260903132434 83 154 1.0 5.0 0.00 0.00 0.00 92 1018.1
20260903131933 82 97 1.0 3.0 0.00 0.00 0.00 93 1018.0
20260903131428 82 41 3.0 7.0 0.00 0.00 0.00 94 1018.2
20260903130922 81 100 1.0 2.0 0.00 0.00 0.00 94 1018.0
20260903130417 81 125 0.0 3.0 0.00 0.00 0.00 95 1018.0
20260903125915 80 106 2.0 3.0 0.00 0.00 0.00 95 1018.1
20260903125410 80 120 1.0 1.0 0.00 0.00 0.00 96 1018.4
20260903124909 79 120 0.0 2.0 0.00 0.00 0.00 96 1018.2
20260903124405 79 128 0.0 0.0 0.00 0.00 0.00 96 1018.5
20260903123903 79 128 0.0 0.0 0.00 0.00 0.00 96 1018.2
20260903123358 78 126 0.0 0.0 0.00 0.00 0.00 96 1018.3
20260903122857 78 114 0.0 2.0 0.00 0.00 0.00 95 1018.4
20260903122352 77 131 0.0 0.0 0.00 0.00 0.00 95 1018.3
20260903121851 77 127 0.0 1.0 0.00 0.00 0.00 95 1018.3
20260903121346 77 110 0.0 2.0 0.00 0.00 0.00 95 1018.4
20260903120842 77 82 0.0 3.0 0.00 0.00 0.00 95 1018.3
20260903120340 77 117 0.0 3.0 0.00 0.00 0.00 95 1018.2
20260903115833 77 34 2.0 2.0 0.00 0.00 0.00 95 1018.0
20260903115328 76 102 0.0 0.0 0.00 0.00 0.00 95 1018.1
20260903114828 76 46 1.0 2.0 0.00 0.00 0.00 95 1018.1
20260903114324 76 44 2.0 2.0 0.00 0.00 0.00 95 1018.0
20260903113819 76 115 0.0 2.0 0.00 0.00 0.00 95 1017.7
20260903113315 76 52 0.0 1.0 0.00 0.00 0.00 95 1017.8
20260903112811 76 33 0.0 1.0 0.00 0.00 0.00 94 1017.6
20260903112306 76 41 1.0 2.0 0.00 0.00 0.00 94 1017.3
20260903111805 76 114 0.0 1.0 0.00 0.00 0.00 94 1017.4
20260903111300 76 114 0.0 0.0 0.00 0.00 0.00 94 1017.3
20260903110756 76 113 0.0 0.0 0.00 0.00 0.00 94 1017.4
20260903110252 76 106 0.0 0.0 0.00 0.00 0.00 94 1017.5
20260903105751 76 103 0.0 0.0 0.00 0.00 0.00 94 1017.5
20260903105247 76 101 0.0 0.0 0.00 0.00 0.00 94 1017.3
20260903104746 76 101 0.0 0.0 0.00 0.00 0.00 94 1017.3
20260903104242 76 100 0.0 0.0 0.00 0.00 0.00 94 1017.3
20260903103737 76 99 0.0 0.0 0.00 0.00 0.00 94 1017.2
20260903103233 76 229 0.0 0.0 0.00 0.00 0.00 94 1017.1
20260903102728 76 235 0.0 0.0 0.00 0.00 0.00 94 1017.1
20260903102223 76 264 0.0 0.0 0.00 0.00 0.00 94 1017.0
20260903101721 76 265 0.0 0.0 0.00 0.00 0.00 94 1017.0
20260903101217 76 225 0.0 0.0 0.00 0.00 0.00 94 1016.9
20260903100711 76 225 0.0 0.0 0.00 0.00 0.00 94 1016.9
20260903100206 76 226 0.0 0.0 0.00 0.00 0.00 94 1016.9
20260903095703 76 227 0.0 0.0 0.00 0.00 0.00 94 1017.0
20260903095158 76 230 0.0 0.0 0.00 0.00 0.00 94 1016.8
20260903094653 76 229 0.0 0.0 0.00 0.00 0.00 94 1017.0
20260903094149 76 230 0.0 0.0 0.00 0.00 0.00 94 1017.1
20260903093643 76 230 0.0 0.0 0.00 0.00 0.00 94 1017.2
20260903093138 76 230 0.0 0.0 0.00 0.00 0.00 94 1017.1
20260903092633 76 226 0.0 0.0 0.00 0.00 0.00 94 1017.2
20260903092127 76 219 0.0 0.0 0.00 0.00 0.00 93 1017.1
20260903091626 76 229 0.0 0.0 0.00 0.00 0.00 93 1017.2
20260903091120 76 231 0.0 0.0 0.00 0.00 0.00 93 1016.8
20260903090616 76 219 0.0 0.0 0.00 0.00 0.00 93 1017.0
20260903090115 76 219 0.0 0.0 0.00 0.00 0.00 93 1017.1
20260903085614 76 222 0.0 0.0 0.00 0.00 0.00 93 1017.0
20260903085109 76 208 0.0 0.0 0.00 0.00 0.00 93 1016.6
20260903084607 76 208 0.0 0.0 0.00 0.00 0.00 93 1016.6
20260903084102 76 218 0.0 0.0 0.00 0.00 0.00 93 1016.5
20260903083552 76 218 0.0 0.0 0.00 0.00 0.00 93 1016.4
20260903083052 76 218 0.0 0.0 0.00 0.00 0.00 93 1016.7
20260903082546 76 218 0.0 0.0 0.00 0.00 0.00 93 1016.6
20260903082042 76 226 0.0 0.0 0.00 0.00 0.00 93 1016.8
20260903081537 76 223 0.0 0.0 0.00 0.00 0.00 93 1016.9
20260903081032 76 221 0.0 0.0 0.00 0.00 0.00 93 1016.9
20260903080529 76 222 0.0 0.0 0.00 0.00 0.00 93 1016.9
20260903080025 76 217 0.0 0.0 0.00 0.00 0.00 93 1016.9
20260903075519 76 212 0.0 0.0 0.00 0.00 0.00 93 1016.7
20260903075015 76 214 0.0 0.0 0.00 0.00 0.00 93 1016.6
20260903074515 76 213 0.0 0.0 0.00 0.00 0.00 93 1016.8
20260903074014 76 214 0.0 0.0 0.00 0.00 0.00 93 1016.6
20260903073505 76 216 0.0 0.0 0.00 0.00 0.00 93 1016.5
20260903073001 76 220 0.0 0.0 0.00 0.00 0.00 92 1016.5
20260903072456 76 220 0.0 0.0 0.00 0.00 0.00 92 1016.3
20260903071953 76 218 0.0 0.0 0.00 0.00 0.00 92 1016.5
20260903071449 76 218 0.0 0.0 0.00 0.00 0.00 92 1016.5
20260903070944 76 219 0.0 0.0 0.00 0.00 0.00 92 1016.7
20260903070443 76 223 0.0 0.0 0.00 0.00 0.00 92 1016.5
20260903065938 77 218 0.0 0.0 0.00 0.00 0.00 92 1016.7
20260903065433 77 226 0.0 0.0 0.00 0.00 0.00 92 1016.4
20260903064932 76 210 0.0 0.0 0.00 0.00 0.00 92 1016.4
20260903064427 77 205 0.0 0.0 0.00 0.00 0.00 92 1016.4
20260903063923 77 205 0.0 0.0 0.00 0.00 0.00 92 1016.1
20260903063418 77 210 0.0 0.0 0.00 0.00 0.00 92 1016.2
20260903062913 77 224 0.0 0.0 0.00 0.00 0.00 92 1016.3
20260903062408 77 221 0.0 0.0 0.00 0.00 0.00 92 1016.3
20260903061904 77 217 0.0 0.0 0.00 0.00 0.00 92 1016.3
20260903061403 77 223 0.0 0.0 0.00 0.00 0.00 92 1016.4
20260903060859 77 224 0.0 0.0 0.00 0.00 0.00 92 1016.5
20260903060359 77 225 0.0 0.0 0.00 0.00 0.00 91 1016.4
20260903055856 77 221 0.0 0.0 0.00 0.00 0.00 91 1016.3
20260903055355 77 221 0.0 0.0 0.00 0.00 0.00 91 1016.3
20260903054850 77 221 0.0 0.0 0.00 0.00 0.00 91 1016.2
20260903054349 77 221 0.0 0.0 0.00 0.00 0.00 91 1016.4
20260903053846 77 221 0.0 0.0 0.00 0.00 0.00 91 1016.3
20260903053341 77 222 0.0 0.0 0.00 0.00 0.00 91 1016.7
20260903052837 77 222 0.0 0.0 0.00 0.00 0.00 91 1016.6
20260903052332 77 220 0.0 0.0 0.00 0.00 0.00 91 1016.6
20260903051828 77 212 0.0 0.0 0.00 0.00 0.00 91 1016.5
20260903051323 77 214 0.0 0.0 0.00 0.00 0.00 91 1016.5
20260903050819 77 210 0.0 0.0 0.00 0.00 0.00 91 1016.4
20260903050318 77 213 0.0 0.0 0.00 0.00 0.00 90 1016.7
20260903045813 77 223 0.0 0.0 0.00 0.00 0.00 90 1016.9
20260903045308 77 224 0.0 0.0 0.00 0.00 0.00 90 1017.0
20260903044804 77 224 0.0 0.0 0.00 0.00 0.00 90 1017.3
20260903044259 77 221 0.0 0.0 0.00 0.00 0.00 90 1016.9
20260903043756 77 225 0.0 0.0 0.00 0.00 0.00 90 1017.1
20260903043255 77 227 0.0 0.0 0.00 0.00 0.00 90 1017.0
20260903042755 78 218 0.0 0.0 0.00 0.00 0.00 90 1017.2
20260903042250 78 210 0.0 0.0 0.00 0.00 0.00 90 1017.2
20260903041746 78 208 0.0 0.0 0.00 0.00 0.00 90 1017.2
20260903041242 78 206 0.0 0.0 0.00 0.00 0.00 89 1017.3
20260903040737 78 226 0.0 0.0 0.00 0.00 0.00 89 1017.3
20260903040237 78 226 0.0 0.0 0.00 0.00 0.00 89 1017.3
20260903035732 78 221 0.0 0.0 0.00 0.00 0.00 89 1017.4
20260903035228 78 220 0.0 0.0 0.00 0.00 0.00 89 1017.5
20260903034723 78 221 0.0 0.0 0.00 0.00 0.00 89 1017.4
20260903034218 78 220 0.0 0.0 0.00 0.00 0.00 89 1017.5
20260903033713 78 216 0.0 0.0 0.00 0.00 0.00 89 1017.6
20260903033208 78 208 0.0 0.0 0.00 0.00 0.00 89 1017.7
20260903032703 78 207 0.0 0.0 0.00 0.00 0.00 88 1017.6
20260903032158 78 217 0.0 0.0 0.00 0.00 0.00 88 1017.8
20260903031653 78 219 0.0 0.0 0.00 0.00 0.00 88 1017.7
20260903031148 78 218 0.0 0.0 0.00 0.00 0.00 88 1018.0
20260903030644 78 236 0.0 0.0 0.00 0.00 0.00 88 1018.2
20260903030139 78 237 0.0 0.0 0.00 0.00 0.00 88 1018.1
20260903025634 78 237 0.0 0.0 0.00 0.00 0.00 87 1018.0
20260903025130 78 216 0.0 0.0 0.00 0.00 0.00 87 1018.1
20260903024625 78 216 0.0 0.0 0.00 0.00 0.00 87 1018.1
20260903024124 78 216 0.0 0.0 0.00 0.00 0.00 87 1018.0
20260903023620 79 215 0.0 0.0 0.00 0.00 0.00 87 1018.0
20260903023120 79 215 0.0 0.0 0.00 0.00 0.00 87 1018.3
20260903022615 79 218 0.0 0.0 0.00 0.00 0.00 87 1018.0
20260903022114 79 221 0.0 0.0 0.00 0.00 0.00 86 1018.1
20260903021608 79 218 0.0 0.0 0.00 0.00 0.00 86 1018.2
20260903021103 79 214 0.0 0.0 0.00 0.00 0.00 86 1017.9
20260903020558 79 213 0.0 0.0 0.00 0.00 0.00 86 1017.8
20260903020058 79 214 0.0 0.0 0.00 0.00 0.00 86 1018.0
20260903015554 79 201 0.0 0.0 0.00 0.00 0.00 85 1018.2
20260903015049 79 159 0.0 0.0 0.00 0.00 0.00 85 1017.9
20260903014549 79 227 0.0 0.0 0.00 0.00 0.00 85 1018.1
20260903014038 79 222 0.0 0.0 0.00 0.00 0.00 85 1017.9
20260903013537 80 221 0.0 0.0 0.00 0.00 0.00 85 1017.9
20260903013032 80 221 0.0 0.0 0.00 0.00 0.00 84 1018.0
20260903012526 80 220 0.0 0.0 0.00 0.00 0.00 84 1017.7
20260903012025 80 219 0.0 0.0 0.00 0.00 0.00 84 1017.9
20260903011524 80 221 0.0 0.0 0.00 0.00 0.00 84 1017.8
20260903011019 80 231 0.0 0.0 0.00 0.00 0.00 83 1017.9
20260903010515 80 223 0.0 0.0 0.00 0.00 0.00 83 1017.7
20260903010014 80 219 0.0 0.0 0.00 0.00 0.00 83 1017.6
20260903005514 80 218 0.0 0.0 0.00 0.00 0.00 83 1017.4
20260903005010 81 218 0.0 0.0 0.00 0.00 0.00 82 1017.4
20260903004510 81 218 0.0 0.0 0.00 0.00 0.00 82 1017.3
20260903004005 81 221 0.0 0.0 0.00 0.00 0.00 82 1017.2
20260903003500 81 221 0.0 0.0 0.00 0.00 0.00 81 1017.3
20260903002956 82 222 0.0 0.0 0.00 0.00 0.00 81 1017.3
20260903002455 82 228 0.0 0.0 0.00 0.00 0.00 81 1017.3
20260903001954 82 224 0.0 0.0 0.00 0.00 0.00 80 1017.2
20260903001450 82 225 0.0 0.0 0.00 0.00 0.00 80 1017.1
20260903000944 82 209 0.0 0.0 0.00 0.00 0.00 80 1017.2
20260903000439 83 214 0.0 0.0 0.00 0.00 0.00 80 1017.0
20260902235937 83 193 0.0 0.0 0.00 0.00 0.00 79 1017.2
20260902235432 83 181 0.0 1.0 0.00 0.00 0.00 79 1016.8
20260902234932 83 203 0.0 0.0 0.00 0.00 0.00 78 1017.0
20260902234428 84 207 0.0 2.0 0.00 0.00 0.00 78 1016.8
20260902233926 84 125 1.0 2.0 0.00 0.00 0.00 78 1016.8
20260902233421 84 145 0.0 1.0 0.00 0.00 0.00 77 1016.8
20260902232920 84 171 0.0 1.0 0.00 0.00 0.00 77 1017.0
20260902232415 84 199 0.0 2.0 0.00 0.00 0.00 77 1016.7
20260902231914 84 192 1.0 3.0 0.00 0.00 0.00 76 1016.8
20260902231409 84 192 0.0 2.0 0.00 0.00 0.00 76 1017.0
20260902230858 85 190 3.0 5.0 0.00 0.00 0.00 76 1016.6
20260902230358 85 223 0.0 3.0 0.00 0.00 0.00 75 1016.7
20260902225852 85 183 3.0 3.0 0.00 0.00 0.00 74 1016.5
20260902225347 85 153 1.0 3.0 0.00 0.00 0.00 74 1016.9
20260902224846 85 162 1.0 6.0 0.00 0.00 0.00 73 1016.9
20260902224340 86 207 0.0 5.0 0.00 0.00 0.00 72 1016.9
20260902223837 86 206 6.0 8.0 0.00 0.00 0.00 72 1016.8
20260902223331 86 187 1.0 5.0 0.00 0.00 0.00 72 1016.6
20260902222831 86 203 6.0 8.0 0.00 0.00 0.00 71 1016.9
20260902222330 86 196 5.0 6.0 0.00 0.00 0.00 71 1017.1
20260902221825 86 189 3.0 6.0 0.00 0.00 0.00 70 1017.2